Tracking 35331 objects as of 14-Sep-2026
HD Live streaming from Space Station
objects crossing your sky now

STARLINK-36434

Track STARLINK-36434 now!
10-day predictions
STARLINK-36434 is classified as:


NORAD ID: 67322
Int'l Code: 2026-002T
Launch date: January 4, 2026
Source: United States (US)
Launch site: AIR FORCE EASTERN TEST RANGE (AFETR)
Your satellite tracking list
Your tracking list is empty




NASA's NSSDC Master Catalog

Two Line Element Set (TLE):
1 67322U 26002T   26257.25257120  .00009063  00000-0  33835-3 0  9999
2 67322  42.9983 340.6693 0000994 281.2972  78.7768 15.27589870 39918
Source of the keplerian elements: AFSPC